Regional Weather Roundup
Issued by NWS

Home | Current Version | Previous Version | Graphics & Text | Print | Product List | Glossary On
Versions: 1 2 3 4 5 6 7 8 9 10 11 12 13 14 15 16 17 18 19 20 21 22 23 24 25 26 27 28 29 30 31 32 33 34 35 36 37 38 39 40 41 42 43 44 45 46 47 48 49 50
000
ASUS43 KMKX 201611
RWRWI

WISCONSIN REGIONAL WEATHER ROUNDUP
NATIONAL WEATHER SERVICE MILWAUKEE/SULLIVAN WI
1100 AM CDT MON OCT 20 2014

NOTE: "FAIR" INDICATES FEW OR NO CLOUDS BELOW 12,000 FEET WITH NO
SIGNIFICANT WEATHER AND/OR OBSTRUCTIONS TO VISIBILITY.

WIZ001-002-006>008-014>016-023>028-201700-
NORTHWEST WISCONSIN

CITY           SKY/WX    TMP DP  RH WIND       PRES   REMARKS
SUPERIOR ARPT  CLOUDY    50  44  78 N10       29.99R
ASHLAND        CLOUDY    52  42  69 N12       29.96R
HAYWARD        MOSUNNY   50  41  71 N8        29.96R
SIREN          CLOUDY    51  42  70 N8        29.98S
CUMBERLAND     CLOUDY    50  41  71 N8        29.97S
RICE LAKE      CLOUDY    52  41  67 N7        29.98S
CHETEK         CLOUDY    52  43  72 NW5       29.96S
LADYSMITH      CLOUDY    52  42  68 N10       29.95S
EAU CLAIRE     MOSUNNY   57  41  55 N13       29.96R
MENOMONIE      SUNNY     56  43  62 NW12      29.97S
NEW RICHMOND   SUNNY     55  42  63 N8        29.99S
OSCEOLA        SUNNY     54  44  68 N10       30.02R
$$

WIZ003>005-009-010-017-018-201700-
NORTH CENTRAL WISCONSIN

CITY           SKY/WX    TMP DP  RH WIND       PRES   REMARKS
MANITOWISH WTR CLOUDY    47  43  85 N8        29.90S
ARBOR VITAE    CLOUDY    48  45  91 N14       29.90S
WOODRUFF       CLOUDY    48  45  91 N14       29.90S
RHINELANDER    CLOUDY    46  43  89 N6        29.90R
EAGLE RIVER    DRIZZLE   46  45  97 N7        29.89R
LAND O LAKES   LGT RAIN  45  43  93 NW10      29.90R
PHILLIPS       CLOUDY    47  42  82 NW6       29.92R
TOMAHAWK       CLOUDY    48  42  77 NW10G20   29.91S
MEDFORD        PTSUNNY   49  43  78 N8        29.92S
MERRILL        CLOUDY    49  43  79 N8        29.90S
$$

WIZ029-030-035-036-043>047-201700-
CENTRAL WISCONSIN

CITY           SKY/WX    TMP DP  RH WIND       PRES   REMARKS
WAUSAU         CLOUDY    50  43  77 NW6       29.89R
MOSINEE        NOT AVBL
MARSHFIELD     MOSUNNY   54  44  69 N13       29.91S
STEVENS POINT  CLOUDY    48  40  73 NW6       29.91R
WAUPACA        CLOUDY    53  45  75 NW9G16    29.90R
WAUTOMA        CLOUDY    53  42  66 N17G23    29.90R
WISC RAPIDS    CLOUDY    53  43  68 N8        29.93R
CAMP DOUGLAS   NOT AVBL
$$

WIZ011>013-019>022-031-037>040-048>050-201700-
NORTHEAST WISCONSIN

CITY           SKY/WX    TMP DP  RH WIND       PRES   REMARKS
ANTIGO         CLOUDY    45  44  95 N6        29.90R FOG
SHAWANO        CLOUDY    52  45  77 NW6       29.88R
OCONTO         CLOUDY    51  45  81 N9        29.86R
STURGEON BAY   CLOUDY    50  43  76 N9        29.86R
GREEN BAY      CLOUDY    52  45  77 N9        29.86S
MANITOWOC      CLOUDY    53  47  79 N12       29.85R
APPLETON       CLOUDY    52  45  76 N13       29.88R
CLINTONVILLE   CLOUDY    50  43  76 NW9       29.88R
OSHKOSH        PTSUNNY   53  45  74 N12       29.87R
$$

WIZ032>034-041-042-053>061-201700-
SOUTHWEST WISCONSIN

CITY           SKY/WX    TMP DP  RH WIND       PRES   REMARKS
LA CROSSE      SUNNY     59  45  59 NW12      29.94F
SPARTA         MOSUNNY   57  42  57 NW8       29.94F
VIROQUA        SUNNY     57  43  59 NW13      29.94S
BOSCOBEL       SUNNY     61  44  53 N12       29.95S
PRAIRIE DU CHI SUNNY     57  42  57 NW5       29.96S
PLATTEVILLE    SUNNY     58  45  61 NW14      29.94S
$$

WIZ056-057-062-063-064-067-068-201700-
SOUTH CENTRAL WISCONSIN

CITY           SKY/WX    TMP DP  RH WIND       PRES   REMARKS
REEDSBURG      MOSUNNY   56  44  64 NW10G18   29.91S
BARABOO/DELLS  MOSUNNY   56  40  56 N13G18    29.91S
LONE ROCK      SUNNY     62  43  49 NW10      29.92S
MINERAL POINT  SUNNY     59  41  51 NW13      29.93S
MADISON        MOSUNNY   58  42  55 N12       29.89F
MIDDLETON      SUNNY     58  41  52 N18       29.90S
WATERTOWN      SUNNY     55  46  70 NW8G17    29.87S
MONROE         SUNNY     55  43  62 N13G22    29.89F
JANESVILLE     SUNNY     59  45  58 N12       29.87S
$$

WIZ051-052-058>065-066-070>072-201700-
SOUTHEAST WISCONSIN

CITY           SKY/WX    TMP DP  RH WIND       PRES   REMARKS
MILWAUKEE      MOSUNNY   57  46  66 N9        29.85R
WAUKESHA       MOSUNNY   54  45  71 NW13      29.86S
MILWAUKEE/TIMM NOT AVBL
RACINE         CLOUDY    57  46  66 N10       29.86R
BURLINGTON     SUNNY     55  45  68 N10G17    29.85S
KENOSHA        CLOUDY    57  47  69 NW7       29.85R
FOND DU LAC    MOSUNNY   55  45  68 N13       29.87S
SHEBOYGAN      CLOUDY    53  45  74 NW7       29.85S
WEST BEND      MOSUNNY   54  43  66 NW9       29.85S
JUNEAU         SUNNY     54  44  70 N8        29.88S
$$

LSZ147-162-201700-
LAKE SUPERIOR

STATION/POSITION TIME  TEMP    WIND        PRES    WAVE
                       AIR SEA DIR/SP/G            HT/PER
                 (UTC) (F)     (DEG/KT/KT) (MB)    (FT/S)
W MID LAKE BUOY  1550   47 46  300/  6/  6 1013.4R   1
DEVILS ISLAND    1600   49     310/ 11/ 13 1014.4R
PORT WING        1500   49     320/ 11/ 13 1014.6R
SAXON HARBOR     1500   51     320/ 11/ 13 1013.5R
$$

LMZ867-665-643>646-201700-
LAKE MICHIGAN

STATION/POSITION TIME  TEMP    WIND        PRES    WAVE
                       AIR SEA DIR/SP/G            HT/PER
                 (UTC) (F)     (DEG/KT/KT) (MB)    (FT/S)
CHAMBERS ISLAND  1500   50     320/ 13/ 15 1010.5R
N MID LAKE BUOY  1550   48 52  330/ 17/ 19 1009.9R   3/ 4
NORTHPORT PIER   1500   49     340/ 13/ 17 1010.2S
KEWAUNEE LAKESHO 1500   51     350/  6/ 10 1009.5R
SHEBOYGAN LAKESH 1600   51 50  350/ 11/ 12 1011.1R
PORT WASHINGTON  1500   55     320/  8/ 13 1011.2R
ATWATER BUOY     1500   53     340/  6/ 10 1011.8R
MILWAUKEE LAKESH 1500   53     350/  9/ 13   N/A
S MID LAKE BUOY  1550   54 55  320/ 10/ 14 1010.2S   2/ 5
KENOSHA   LAKESH 1600   56     320/ 11/ 13 1010.5S
$$

TC  - TEMPERATURE IN CELSIUS
VSB - VISIBILITY IN STATUTE MILES
WCI - WIND CHILL INDEX
HX  - HEAT INDEX



USA.gov is the U.S. government's official web portal to all federal, state and local government web resources and services.